Retour au catalogue

PEGASUS DEB

ActifPO
NORAD 40242·DEBRIS·🇺🇸 United States

Lancé May 19, 1994 depuis Vandenberg Space Force Base

Loading…

Prochains Passages (prochaines 24 heures)

TLE

FraisSource: Space-Track

Époque: Sep 13, 2026, 05:22 UTC

1 40242U 94029AGJ 26256.22422735  .00006313  00000-0  12618-2 0  9997
2 40242  81.8753 222.4706 0313190 318.3423  39.4281 14.35085248615199

Suivez PEGASUS DEB en temps réel avec AllMySat

Download on the App Store